INSAT-4B

Last updated on Nov. 22, 2019, 4:19 a.m. UTC

1 30793U 07007A   19325.61577971 -.00000167  00000-0  00000+0 0  9993
2 30793   0.1033  99.6357 0009249 164.5767 100.8459  1.00271323 46501
UTC
Height (km)
Latitude
Longitude
Inclination
Orbital Period
UTC large
Height (km)
Speed (km/s)
/
Latitude / Longitude
Inclination (degrees)
Orbital Period (minutes)
Azimuth
Elevation
Range (km)
Doppler Factor
iOS Compass Heading
iOS Angle

Next 30 passes for location: Hong Kong

Rise time Rise Azimuth (degrees) Set time Set Azimuth (degrees) Duration Max altitude (degrees)

No matching passes for this satellites